This is the latest recevied weather packets stored in our database for station/object K9JWM. If no packets are shown the sender has not sent any weather packets the latest 10 day(s).
| Time | Temp. | Humidity | Pressure | Rain* | Wind** | Luminosity | Snow |
|---|---|---|---|---|---|---|---|
| 1778098630 | 3.89° C | 57% | 1014.6 hPa | 0 mm | - | - | - |
| 1778097731 | 3.89° C | 64% | 1014.7 hPa | 0 mm | - | - | - |
| 1778096830 | 3.89° C | 60% | 1014.6 hPa | 0 mm | - | - | - |
| 1778095931 | 3.89° C | 60% | 1014.7 hPa | 0 mm | - | - | - |
| 1778095031 | 3.89° C | 63% | 1014.7 hPa | 0 mm | - | - | - |
| 1778094131 | 3.89° C | 61% | 1014.8 hPa | 0 mm | - | - | - |
| 1778093231 | 3.33° C | 61% | 1014.8 hPa | 0 mm | - | - | - |
| 1778092330 | 3.33° C | 64% | 1014.8 hPa | 0 mm | - | - | - |
| 1778091431 | 3.33° C | 64% | 1014.8 hPa | 0 mm | - | - | - |
| 1778090531 | 3.33° C | 60% | 1014.7 hPa | 0 mm | - | - | - |
| 1778089631 | 3.33° C | 60% | 1014.7 hPa | 0 mm | - | - | - |
| 1778088731 | 3.89° C | 61% | 1014.9 hPa | 0 mm | - | - | - |
| 1778087831 | 3.33° C | 59% | 1014.8 hPa | 0 mm | - | - | - |
| 1778086930 | 3.33° C | 61% | 1014.9 hPa | 0 mm | - | - | - |
| 1778086030 | 3.33° C | 60% | 1015 hPa | 0 mm | - | - | - |
| 1778085129 | 2.78° C | 60% | 1015 hPa | 0 mm | - | - | - |
| 1778084230 | 2.78° C | 60% | 1015 hPa | 0 mm | - | - | - |
| 1778083329 | 2.78° C | 62% | 1015 hPa | 0 mm | - | - | - |
| 1778082431 | 2.78° C | 59% | 1015 hPa | 0 mm | - | - | - |
| 1778081529 | 2.22° C | 60% | 1015 hPa | 0 mm | - | - | - |
| 1778080631 | 2.22° C | 60% | 1014.9 hPa | 0 mm | - | - | - |
| 1778079730 | 2.22° C | 61% | 1014.6 hPa | 0 mm | - | - | - |
| 1778078831 | 2.22° C | 63% | 1014.8 hPa | 0 mm | - | - | - |
| 1778077930 | 1.67° C | 67% | 1014.8 hPa | 0 mm | - | - | - |
| 1778077030 | 1.67° C | 67% | 1014.8 hPa | 0 mm | - | - | - |
* Rain latest hour (hover to see other rain measurements)
** Current wind speed in m/s (hover to see current wind gust speed)